Airfield :
LOGIN :

Register | Disclaimer

   EN    FR    IT 

 










Legend :    VFR   Marginal VFR   IFR   Intensive IFR   Very Intensive IFR
Visi :
Ceiling :
>= 8 km
>= 3000ft
5 to 8 km
1000 to 3000 ft
1500m to 5 km
500 to 1000 ft
800 to 1500m
200 to 500 ft
< 800m
< 200 ft
Symbols :   Thunderstorms  Fog  Heavy snow  Heavy precipitations  Wind > 20 kt
SIGMETs :     Misc.  Thunderstorms  Icing  Turbulence  Mountain Waves  Volcanic Ashes






- Airport Elevation : 231 ft
- IATA code : WTN


EGXW - RAF Waddington

CURRENT METAR :
  • 290950Z 20015KT 9999 -RA FEW024 BKN070 10/08 Q1009 BECMG BKN010 RMK BLU TEMPO GRN

EXPIRED METARs :
  • 290850Z 20011KT 9999 BKN022 09/06 Q1009 TEMPO 6000 -RA BKN008 RMK WHT TEMPO GRN
  • 290750Z 21012KT 9999 BKN040 08/05 Q1009 NOSIG RMK BLU BLU

TAF TAF EGXW
Valid from the 29 at 09:00 until the 30 at 03:00 UTC


290751Z 2909/3003 19014KT 9999 FEW022 BKN030
BECMG 2909/2912 22017G27KT -RA BKN008
TEMPO 2910/2914 6000 RA BKN005
PROB40
TEMPO 2910/2914 4000 +RA BKN003
BECMG 2914/2916 NSW FEW015 BKN025
TEMPO 2916/3003 BKN015
PROB30
TEMPO 2921/3003 SCT010



MET'MAP, your aeronautical weather chart ! - Copyright ORBIFLY December 2007 - Disclaimer

ORBIFLY MET'MAP TEAM :

Programming & Development : Alexandra Zaïnal
Concept & original design : Baudouin d'Aumeries
Assistance for programming : Marc-Olivier Méhu
Technical & hardware support : Manuel Goepfert

Contact : metmap@orbifly.com




SOURCES & CREDITS :

   NOAA